Terug naar catalogus

YAOGAN-46

ActiefMilitairMEO
NORAD 66313·PAYLOAD·🇨🇳 China

Gelanceerd Nov 3, 2025 vanaf Wenchang Space Launch Site

Loading…

Volgende Passages (komende 24 uur)

TLE

VersSource: Space-Track

Epoch: Sep 14, 2026, 12:36 UTC

1 66313U 25250A   26257.52527804 -.00000026  00000-0  00000-0 0  9997
2 66313  20.0590 282.6316 0005207 255.6170 104.3409  5.31209588 16846

Volg YAOGAN-46 in realtime met AllMySat

Download on the App Store